Flag for Switzerland Weather past 2 weeks in Geneva, Geneva, Switzerland

Now
51 °F

Cool.


Feels Like: 48 °F
Forecast: 37 / 62 °F
Wind: 7 mph from East

Location: Geneve-Cointrin

Current Time: Apr 28, 2015 at 5:31:35 PM

Latest Report: Apr 28, 2015 at 4:00 PM


Visibility: N/A

Pressure: 30.13 "Hg

Humidity: 50%

Dew point: 33 °F

Location of GenevaLocation

Historic Weather in Geneva — Graph

°F

Geneva temperature yesterday

Maximum temperature yesterday: 65 °F (at 4:00 PM)
Minimum temperature yesterday: 53 °F (at 11:00 PM)
Average temperature yesterday: 58 °F

Past Weeks' High & Low Weather Summary

 TemperatureHumidityPressure
High73 °F (Apr 24, 4:00 PM)95% (Apr 18, 4:00 AM)30.47 "Hg (Apr 18, 4:00 AM)
Low41 °F (Apr 21, 7:00 AM)20% (Apr 24, 4:00 PM)29.47 "Hg (Apr 27, 4:00 PM)
Average56 °F63%30.04 "Hg
* Reported Apr 13 4:00 PM — Apr 28 4:00 PM, Geneva, Weather by CustomWeather, © 2015

Note: Actual official high and low records may vary slightly from our data, if they occured in-between our weather recording intervals... More about our weather records

Advertising

Geneva weather history for previous 24 hours

 ConditionsComfort  
Time TempWeatherWind HumidityBarometerVisibility
4:00 PM
Tue, Apr 28
51 °FCool.7 mph50%30.13 "HgN/A
3:00 PM51 °FCool.7 mph55%30.13 "HgN/A
2:00 PM51 °FOvercast.7 mph48%30.11 "Hg19 mi
1:00 PM50 °FCool.3 mph56%30.10 "HgN/A
12:00 PM49 °FCool.7 mph57%30.09 "HgN/A
11:00 AM48 °FOvercast.2 mph65%30.06 "Hg16 mi
10:00 AM47 °FCool.5 mph70%30.05 "HgN/A
9:00 AM47 °FCool.6 mph64%30.03 "HgN/A
8:00 AM47 °FOvercast.6 mph68%30.00 "Hg12 mi
7:00 AM46 °FCool.6 mph70%29.96 "HgN/A
6:00 AM47 °FCool.5 mph91%29.93 "HgN/A
4:00 AM48 °FCool.2 mph93%29.87 "HgN/A
3:00 AM48 °FCool.2 mph92%29.84 "HgN/A
2:00 AM49 °FLight rain. Overcast.5 mph91%29.81 "Hg11 mi
1:00 AM48 °FCool.2 mph90%29.78 "HgN/A
12:00 AM51 °FCool.10 mph73%29.72 "HgN/A
11:00 PM
Mon, Apr 27
53 °FLight rain. Low clouds.7 mph74%29.67 "Hg11 mi
10:00 PM55 °FCool.5 mph80%29.63 "HgN/A
9:00 PM56 °FCool.3 mph93%29.60 "HgN/A
8:00 PM57 °FRain showers. Overcast.3 mph90%29.57 "Hg4 mi
7:00 PM58 °FCool.8 mph82%29.54 "HgN/A
6:00 PM65 °FMild.5 mph55%29.47 "HgN/A
5:00 PM65 °FOvercast.5 mph53%29.47 "Hg22 mi
Weather by CustomWeather, © 2015

See weather overviewHow to use our weather pages